IRIDIUM 33 DEB, 34375

Orbit data source: Space-Track

IRIDIUM 33 DEB, 34375 is space debris in LEO originally from a launch on Sun, 14 Sep 1997 UTC launched from the Tyuratam Missile And Space Complex (TTMTR). The debris from Iridium 33, an American commercial communications satellite, has been tracked extensively since its accidental collision with the defunct Russian satellite Cosmos 2251 in 2009. This event, occurring at high speed in low Earth orbit (LEO), generated thousands of pieces of space debris, significantly increasing the risk of further collisions. The Iridium 33 debris cloud has impacted space traffic management and orbital debris mitigation strategies, making it a subject of ongoing study in space situational awareness.

Loading next visibility...
Identifier
34375, 1997-051FT
Orbit
LEO
Country
Flag of USUS
Related business
Manufacturer
Unknown
Mission
Spacecraft
Bus & Motor
Unknown
Mass
Unknown
Launch date (UTC)
1997-09-14 (28 years ago)
Launch vehicle
Unknown
Launch site
Tyuratam Missile And Space Complex (TTMTR)
Object type
Payload
Rocket body
Debris
Shape & HBR
Unknown shape, 0.1 m
Radar Cross Section
Small (<0.1 m²)

Expand to show TLE details & history
Last TLE update: 1 day ago

TLE from 1 day ago
0 IRIDIUM 33 DEB
1 34375U 97051FT  25304.97763962  .00001193  00000-0  54797-3 0  9996
2 34375  86.4354 199.5155 0100291 260.3399 118.4497 14.17881899861201
Epoch: 2025-10-31T23:27Z
TLE epoch observation values (Epoch: 2025-10-31T23:27:48.063Z)
Latitude
19.75411°
Longitude
168.32604°
Altitude
870.134 km
Speed
7.401 km/s
True Right ascension
13h 23m 09s
True Declination
19° 38' 48"
Sunlit
Object was in daylight at epoch
Visualization orbit readout
Latitude
Unknown
Longitude
Unknown
Altitude
Unknown
Speed
Unknown
Apparent Right ascension
Unknown
Apparent Declination
Unknown
Sunlit
N/A
Visualization observer readout
Local Sidereal Time
19:31:50
Azimuth
Unknown
Elevation
Unknown
Doppler factor
Unknown
Orbital elements
Apogee altitude
901.798 km
Perigee altitude
757.225 km
Semi-major axis
7,207.648 km
Eccentricity
0.01003
Inclination
86.4354°
RAAN
199.5155°
Arg. of periapsis
260.3399°
True anomaly
119.45411°
Mean anomaly
118.4497°
Eccentric anomaly
118.95251°
Mean motion
3.54693 °/min
Orbital period
101.5 mins
BSTAR
0.00054797
Loading maneuver chart data...
Computing Atmospheric mass density...

Documentation

Showing up to 5 results
|